Weather observations for the past three days for
Emigrant Gap, Blue Canyon Nyack Airport
Imperial (Metric)
Date Time (pdt) Wind (mph) Vis. (mi.) Weather Sky Cond. Temperature (ºF) Relative Humidity Wind Chill (°F) Heat Index (°F) Pressure Precipitation (in)
Air Dwpt 6 hour altimeter (in) sea level (mb) 1 hr 3 hr 6 hr
Max. Min.
02 15:52 S 12 G 18 10.00 Fair CLR 61 44.1 54% 30.01 1010.2
02 14:52 S 10 G 21 10.00 Fair CLR 62.1 44.1 52% 30.04 1010.8
02 13:52 Vrbl 7 10.00 Fair CLR 62.1 43 50% 30.05 1011.2
02 12:52 S 12 G 21 10.00 Fair CLR 61 42.1 50% 30.05 1011.6
02 11:52 S 8 G 20 10.00 Fair CLR 62.1 41 46% 30.05 1011.4
02 10:52 S 12 G 21 10.00 Fair CLR 62.1 39 62.1 51.1 43% 30.05 1011.3
02 09:52 S 8 10.00 Fair CLR 61 37 41% 30.05 1011.3
02 08:52 Vrbl 6 10.00 Fair CLR 57.9 37 46% 30.05 1011.5
02 07:52 SE 3 10.00 Fair CLR 55 36 49% 30.04 1011.7
02 06:52 E 3 10.00 Fair CLR 52 36 55% 30.03 1010.9
02 05:52 E 5 10.00 Fair CLR 52 39 61% 30.02 1010.5
02 04:52 E 3 10.00 Fair CLR 51.1 41 55 51.1 69% 30.03 1010.8
02 03:52 Calm 10.00 Fair CLR 52 42.1 69% 30.04 1010.6
02 02:52 SE 3 10.00 Fair CLR 53.1 39.9 61% 30.04 1010.7
02 01:52 SE 3 10.00 Fair CLR 53.1 39.9 61% 30.05 1010.8
02 00:52 Calm 10.00 Fair CLR 53.1 41 64% 30.07 1011.3
01 23:52 Calm 10.00 Fair CLR 54 41 62% 30.07 1011.5
01 22:52 Calm 10.00 Fair CLR 54 41 63 53.1 62% 30.07 1011.8
01 21:52 Calm 10.00 Fair CLR 55 42.1 62% 30.08 1012.0
01 20:52 Calm 10.00 Fair CLR 55 42.1 62% 30.06 1011.8
01 19:52 Calm 10.00 Fair CLR 55.9 45 67% 30.06 1012.3
01 18:52 Calm 10.00 Fair CLR 61 44.1 54% 30.06 1012.2
01 17:52 W 6 10.00 Fair CLR 62.1 42.1 48% 30.07 1012.4
01 16:52 Vrbl 6 10.00 Fair CLR 63 39 66.9 63 41% 30.07 1011.9
01 15:52 SW 12 G 18 10.00 Fair CLR 64.9 35.1 33% 30.08 1012.0
01 14:52 SW 12 G 20 10.00 Fair CLR 64.9 39 39% 30.1 1012.3
01 13:52 Vrbl 7 10.00 Mostly Cloudy BKN085 66 41 40% 30.09 1011.9
01 12:52 N 7 10.00 Fair CLR 66 25 21% 30.1 1012.2
01 11:52 Vrbl 3 10.00 Fair CLR 66 27 23% 30.12 1013.1
01 10:52 Calm 10.00 Fair CLR 64 25 64.9 48.9 23% 30.12 1013.3
01 09:52 Calm 10.00 Fair CLR 63 25 24% 30.12 1013.8
01 08:52 Vrbl 7 10.00 Fair CLR 60.1 28 30% 30.11 1013.5
01 07:52 Vrbl 6 10.00 Fair CLR 54 28.9 38% 30.11 1013.9
01 06:52 Vrbl 3 10.00 Fair CLR 50 26.1 39% 30.09 1013.4
01 05:52 NE 3 10.00 Fair CLR 50 23 35% 30.08 1012.6
01 04:52 E 3 10.00 Fair CLR 52 24.1 55.9 52 34% 30.08 1012.2
01 03:52 Vrbl 5 10.00 Fair CLR 52 24.1 34% 30.08 1012.3
01 02:52 Calm 10.00 Fair CLR 54 23 30% 30.08 1011.9
01 01:52 NE 7 10.00 Fair CLR 55 24.1 30% 30.08 1011.8
01 00:52 NE 6 10.00 Fair CLR 55 25 31% 30.09 1011.9
30 23:52 NE 6 10.00 Fair CLR 53.1 37.9 57% 30.09 1012.6
30 22:52 N 5 10.00 Fair CLR 55 37.9 64 52 53% 30.09 1012.5
30 21:52 Calm 10.00 Fair CLR 53.1 42.1 66% 30.1 1013.2
30 20:52 NW 5 10.00 Fair CLR 55 39.9 57% 30.08 1012.7
30 19:52 Calm 10.00 Fair CLR 57 41 55% 30.07 1012.7
30 18:52 W 7 10.00 Fair CLR 61 41 48% 30.06 1012.4
30 17:52 Vrbl 7 10.00 Fair CLR 63 37 38% 30.06 1012.1
30 16:52 W 6 G 22 10.00 A Few Clouds FEW055 64 37 64.9 61 37% 30.05 1012.0
30 15:52 W 10 10.00 Partly Cloudy SCT080 64 36 35% 30.06 1011.8
30 14:52 Calm 10.00 Mostly Cloudy BKN085 63 37 38% 30.07 1012.6
30 13:52 Vrbl 6 10.00 Mostly Cloudy BKN090 64.9 33.1 31% 30.07 1012.0
30 12:52 Vrbl 7 10.00 A Few Clouds FEW085 64 27 25% 30.08 1012.4
30 11:52 Vrbl 5 10.00 A Few Clouds FEW085 63 27 26% 30.09 1013.0
30 10:52 Calm 10.00 Fair CLR 62.1 23 62.1 46.9 22% 30.1 1013.1
30 09:52 Vrbl 6 10.00 Fair CLR 61 26.1 26% 30.09 1013.4
30 08:52 Vrbl 6 10.00 Fair CLR 57.9 28 32% 30.09 1013.6
30 07:52 Vrbl 3 10.00 Fair CLR 52 30.9 45% 30.09 1014.0
30 06:52 NE 6 10.00 Fair CLR 48 30.9 52% 46 30.08 1014.0
30 05:52 NE 7 10.00 Fair CLR 48.9 30.9 50% 46 30.08 1013.6
30 04:52 Vrbl 6 10.00 Fair CLR 48 30.9 52 48 52% 46 30.08 1013.8
30 03:52 NE 6 10.00 Fair CLR 48.9 33.1 55% 47 30.09 1013.7
30 02:52 NE 5 10.00 Fair CLR 48.9 35.1 59% 48 30.1 1014.0
30 01:52 E 3 10.00 Fair CLR 51.1 35.1 54% 30.12 1014.4
30 00:52 NE 3 10.00 Fair CLR 52 37.9 59% 30.12 1014.3
29 23:52 Vrbl 3 10.00 Fair CLR 50 39.9 68% 30.12 1014.7
29 22:52 Vrbl 3 10.00 Fair CLR 51.1 39.9 57.9 50 66% 30.12 1015.2
29 21:52 N 5 10.00 Fair CLR 51.1 39.9 66% 30.12 1015.3
29 20:52 N 6 10.00 Fair CLR 51.1 39.9 66% 30.12 1015.3
29 19:52 N 3 10.00 Fair CLR 53.1 39.9 61% 30.11 1015.5
29 18:52 Vrbl 5 10.00 Fair CLR 55.9 39.9 55% 30.11 1015.6
29 17:52 W 9 10.00 Fair CLR 57 39.9 53% 30.12 1015.6
29 16:52 SW 8 10.00 Fair CLR 57 41 60.1 55 55% 30.12 1015.9
Date Time (pdt) Wind (mph) Vis. (mi.) Weather Sky Cond. Air Dwpt Max. Min. Relative Humidity Wind Chill (°F) Heat Index (°F) altimeter (in) sea level (mb) 1 hr 3 hr 6 hr
6 hour
Temperature (ºF) Pressure Precipitation (in)